Regional Weather Roundup
Issued by NWS Binghamton, NY

Home | Current Version | Previous Version | Text Only | Print | Product List | Glossary On
Versions: 1 2 3 4 5 6 7 8 9 10 11 12 13 14 15 16 17 18 19 20 21 22 23 24 25 26 27
000
ASUS41 KBGM 090210
RWRBGM

REGIONAL WEATHER ROUNDUP
NATIONAL WEATHER SERVICE BINGHAMTON NY
900 PM EST THU DEC 08 2016

Note: "fair" indicates few or no clouds below 12,000 feet with no
significant weather and/or obstructions to visibility.

* = Station(s) that does not report precipitation, such as rain,
snow, etc, also no thunder or fog.

NYZ009-015>018-022>025-036-037-044>046-055>057-062-090300
...Central New York...

CITY           SKY/WX    TMP DP  RH WIND       PRES   REMARKS
Binghamton     CLOUDY    22  20  92 W7        29.91F WCI  13
Cortland       CLOUDY    28  19  69 W9        29.94R WCI  20
Dansville      CLOUDY    28  19  69 N5        30.01R WCI  23
Elmira         CLOUDY    30  16  56 W9        29.99R WCI  22
Seneca Falls   CLOUDY    32  18  55 W14G23    29.98S WCI  22
Ithaca         CLOUDY    26  20  77 W9        29.96S WCI  17
Hamilton       CLOUDY    28  14  54 W8        29.90R WCI  20
Monticello     PTCLDY    28  19  69 W13       29.91R WCI  18
Norwich        CLOUDY    28  18  64 CALM      29.94R
Oneonta        PTCLDY    25  18  74 W13G18    29.86S WCI  13
Penn Yan       MOCLDY    28  18  66 W12       29.97S WCI  18
Rome           CLOUDY    30  18  60 W13G23    29.92S WCI  20
Sidney         CLOUDY    27  25  93 W5        29.94S WCI  21
Syracuse       CLOUDY    30  15  53 SW18G28   29.93S WCI  18
$$

PAZ038>040-043-044-047-048-072-090300
...Northeast Pennsylvania...

CITY           SKY/WX    TMP DP  RH WIND       PRES   REMARKS
Hazleton       CLOUDY    28  14  54 W7G18     30.00S WCI  21
Scranton       CLOUDY    33  15  47 W20G26    29.98R WCI  21
$$
&&
KEY
WCI = Wind Chill Index
VSB = Visibility
HX  = Heat Index
$$




USA.gov is the U.S. government's official web portal to all federal, state and local government web resources and services.